Terug naar catalogus

SECOR 4

EGRS 4

ActiefWetenschapPO
NORAD 1315·PAYLOAD·🇺🇸 United States

Gelanceerd Apr 3, 1965 vanaf Vandenberg Space Force Base

Loading…

Volgende Passages (komende 24 uur)

TLE

VersSource: Space-Track

Epoch: Sep 14, 2026, 08:07 UTC

1 01315U 65027B   26257.33828512  .00000072  00000-0  23991-3 0  9990
2 01315  90.2588  17.6106 0030163 330.3588  54.8039 12.92668815898448

Volg SECOR 4 in realtime met AllMySat

Download on the App Store